EW8051 Weather Reports


time (UTC)temp
C
wind
direction
speed
KPH
gust
KPH
rain 1hr
cm
rain 24hr
cm
rain mn
cm
humidity
%
barometer
mb
20260507044602 18 0.0 0.0 0.00 0.00 0.00 61 1011.8
20260507043535 17 0.0 1.6 0.00 0.00 0.00 62 1011.9
20260507042559 17 0.0 1.6 0.00 0.00 0.00 62 1011.9
20260507041536 17 0.0 1.6 0.00 0.00 0.00 66 1011.9
20260507040559 17 315 1.6 3.2 0.00 0.00 0.00 67 1011.9
20260507035542 16 315 3.2 6.4 0.00 0.00 0.00 67 1011.9
20260507034559 16 0.0 3.2 0.00 0.00 0.00 67 1012.1
20260507033537 16 315 0.0 3.2 0.00 0.00 0.00 68 1012.2
20260507032826 16 315 1.6 3.2 0.00 0.00 0.00 68 1012.1
20260507031535 16 315 1.6 4.8 0.00 0.00 0.00 68 1012.1
20260507030559 16 315 1.6 4.8 0.00 0.00 0.00 68 1012.1
20260507025535 15 315 3.2 6.4 0.00 0.00 0.00 68 1012.2
20260507024600 15 315 3.2 8.0 0.00 0.00 0.00 68 1012.3
20260507023555 15 315 1.6 6.4 0.00 0.00 0.00 67 1012.3
20260507022639 15 315 0.0 3.2 0.00 0.00 0.00 66 1012.3
20260507021544 15 315 3.2 6.4 0.00 0.00 0.00 67 1012.5
20260507020620 15 315 3.2 6.4 0.00 0.00 0.00 66 1012.7
20260507015535 15 315 3.2 8.0 0.00 0.00 0.00 65 1012.7
20260507014619 15 315 3.2 8.0 0.00 0.00 0.00 65 1012.8
20260507013536 15 315 3.2 8.0 0.00 0.00 0.00 64 1012.9
20260507012642 15 315 4.8 8.0 0.00 0.00 0.00 63 1013.0
20260507011535 15 315 4.8 6.4 0.00 0.00 0.00 62 1013.0
20260507010559 16 315 4.8 8.0 0.00 0.00 0.00 62 1013.1
20260507005536 16 315 6.4 8.0 0.00 0.00 0.00 61 1013.1
20260507004708 16 315 4.8 8.0 0.00 0.00 0.00 61 1013.2
20260507003537 16 315 6.4 9.7 0.00 0.00 0.00 61 1013.2
20260507002620 16 315 1.6 4.8 0.00 0.00 0.00 61 1013.3
20260507001536 16 315 0.0 4.8 0.00 0.00 0.00 61 1013.3
20260507000600 16 315 1.6 3.2 0.00 0.00 0.00 60 1013.3
20260506235535 16 315 1.6 3.2 0.00 0.00 0.00 60 1013.3
20260506234600 16 315 1.6 6.4 0.00 0.00 0.00 60 1013.3
20260506233536 16 315 0.0 3.2 0.00 0.00 0.00 60 1013.3
20260506232559 16 315 3.2 4.8 0.00 0.00 0.00 59 1013.4
20260506231536 16 315 1.6 3.2 0.00 0.00 0.00 57 1013.4
20260506230601 17 315 3.2 8.0 0.00 0.00 0.00 56 1013.4
20260506225536 17 315 3.2 8.0 0.00 0.00 0.00 55 1013.4
20260506224652 17 315 1.6 3.2 0.00 0.00 0.00 54 1013.4
20260506223535 17 315 0.0 3.2 0.00 0.00 0.00 51 1013.3
20260506222603 17 315 4.8 14.5 0.00 0.00 0.00 50 1013.4
20260506221623 17 315 4.8 12.9 0.00 0.00 0.00 50 1013.4
20260506220620 17 315 3.2 8.0 0.00 0.00 0.00 50 1013.4
20260506215535 18 315 0.0 3.2 0.00 0.00 0.00 50 1013.4
20260506214600 18 315 4.8 11.3 0.00 0.00 0.00 50 1013.3
20260506213543 18 315 0.0 3.2 0.00 0.00 0.00 50 1013.2
20260506212600 18 315 1.6 4.8 0.00 0.00 0.00 51 1013.2
20260506211536 18 315 4.8 12.9 0.00 0.00 0.00 51 1013.2
20260506210600 18 315 3.2 8.0 0.00 0.00 0.00 51 1013.3
20260506205224 18 315 6.4 14.5 0.00 0.00 0.00 51 1013.2
20260506204025 19 315 4.8 12.9 0.00 0.00 0.00 51 1013.1
20260506203050 19 315 3.2 12.9 0.00 0.00 0.00 51 1013.1
20260506202024 19 315 4.8 9.7 0.00 0.00 0.00 51 1013.0
20260506200603 20 315 1.6 6.4 0.00 0.00 0.00 51 1012.9
20260506195629 20 315 0.0 3.2 0.00 0.00 0.00 51 1012.7
20260506194620 20 315 1.6 8.0 0.00 0.00 0.00 51 1012.6
20260506193636 20 315 4.8 9.7 0.00 0.00 0.00 51 1012.5
20260506192602 20 315 0.0 3.2 0.00 0.00 0.00 51 1012.4
20260506191538 20 315 1.6 4.8 0.00 0.00 0.00 51 1012.4
20260506190828 20 315 1.6 8.0 0.00 0.00 0.00 51 1012.4
20260506185541 21 315 1.6 8.0 0.00 0.00 0.00 51 1012.4
20260506184600 21 315 3.2 6.4 0.00 0.00 0.00 51 1012.3
20260506183632 21 315 4.8 8.0 0.00 0.00 0.00 50 1012.3
20260506182600 21 315 1.6 4.8 0.00 0.00 0.00 50 1012.3
20260506181542 21 315 8.0 12.9 0.00 0.00 0.00 49 1012.2
20260506180601 22 315 8.0 12.9 0.00 0.00 0.00 48 1012.1
20260506175536 22 315 9.7 12.9 0.00 0.00 0.00 47 1012.1
20260506174622 22 315 9.7 14.5 0.00 0.00 0.00 43 1012.0
20260506173537 22 315 4.8 8.0 0.00 0.00 0.00 43 1011.9
20260506172609 23 315 4.8 9.7 0.00 0.00 0.00 42 1011.7
20260506171558 23 315 6.4 11.3 0.00 0.00 0.00 41 1011.7
20260506170605 23 315 4.8 8.0 0.00 0.00 0.00 41 1011.5
20260506165712 23 315 4.8 8.0 0.00 0.00 0.00 40 1011.4
20260506164649 23 315 0.0 3.2 0.00 0.00 0.00 37 1011.2
20260506163624 24 315 4.8 6.4 0.00 0.00 0.00 36 1011.1
20260506163357 24 315 4.8 8.0 0.00 0.00 0.00 35 1011.1
20260506161558 25 315 8.0 12.9 0.00 0.00 0.00 34 1011.1
20260506160601 26 315 4.8 6.4 0.00 0.00 0.00 32 1011.0
20260506155625 26 315 9.7 16.1 0.00 0.00 0.00 31 1011.0
20260506154600 27 315 3.2 9.7 0.00 0.00 0.00 29 1010.9
20260506153536 27 315 6.4 16.1 0.00 0.00 0.00 29 1010.8
20260506152606 27 315 8.0 12.9 0.00 0.00 0.00 31 1010.8
20260506151536 27 315 4.8 8.0 0.00 0.00 0.00 31 1010.7
20260506150616 27 315 9.7 16.1 0.00 0.00 0.00 28 1010.8
20260506145539 28 315 8.0 12.9 0.00 0.00 0.00 26 1010.6
20260506144601 28 315 3.2 8.0 0.00 0.00 0.00 26 1010.6
20260506143543 28 315 3.2 12.9 0.00 0.00 0.00 27 1010.5
20260506142600 27 315 8.0 12.9 0.00 0.00 0.00 29 1010.6
20260506141536 27 315 11.3 17.7 0.00 0.00 0.00 28 1010.6
20260506140600 27 315 4.8 17.7 0.00 0.00 0.00 29 1010.5
20260506135537 26 315 11.3 17.7 0.00 0.00 0.00 32 1010.5
20260506134606 26 315 16.1 27.4 0.00 0.00 0.00 31 1010.5
20260506133537 27 315 8.0 16.1 0.00 0.00 0.00 31 1010.4
20260506132600 26 315 12.9 20.9 0.00 0.00 0.00 32 1010.3
20260506131537 26 315 11.3 22.5 0.00 0.00 0.00 31 1010.2
20260506130621 26 315 16.1 27.4 0.00 0.00 0.00 30 1010.2
20260506125537 26 315 9.7 22.5 0.00 0.00 0.00 31 1010.2
20260506124629 26 315 12.9 30.6 0.00 0.00 0.00 31 1010.3
20260506123536 26 315 6.4 11.3 0.00 0.00 0.00 31 1010.2
20260506122621 26 315 11.3 25.7 0.00 0.00 0.00 31 1010.3
20260506121537 26 315 9.7 22.5 0.00 0.00 0.00 31 1010.2
20260506120601 26 315 14.5 24.1 0.00 0.00 0.00 31 1010.2
20260506115557 26 315 11.3 22.5 0.00 0.00 0.00 31 1010.2
20260506114601 26 315 11.3 25.7 0.00 0.00 0.00 31 1010.2
20260506113536 26 315 9.7 22.5 0.00 0.00 0.00 31 1010.3
20260506112738 26 315 8.0 14.5 0.00 0.00 0.00 31 1010.3
20260506111537 25 315 6.4 11.3 0.00 0.00 0.00 31 1010.3
20260506110601 25 315 4.8 9.7 0.00 0.00 0.00 33 1010.3
20260506105542 24 315 6.4 17.7 0.00 0.00 0.00 33 1010.3
20260506104601 24 315 14.5 20.9 0.00 0.00 0.00 34 1010.4
20260506103557 24 315 14.5 25.7 0.00 0.00 0.00 34 1010.3
20260506102607 24 315 6.4 14.5 0.00 0.00 0.00 34 1010.3
20260506101537 23 315 9.7 17.7 0.00 0.00 0.00 34 1010.3
20260506100601 23 315 9.7 16.1 0.00 0.00 0.00 34 1010.4
20260506095537 23 315 8.0 16.1 0.00 0.00 0.00 36 1010.3
20260506094601 23 315 12.9 22.5 0.00 0.00 0.00 37 1010.3
20260506093638 23 315 8.0 17.7 0.00 0.00 0.00 36 1010.3
20260506092621 23 315 14.5 19.3 0.00 0.00 0.00 37 1010.2
20260506091537 23 315 14.5 27.4 0.00 0.00 0.00 39 1010.2
20260506090603 23 315 8.0 9.7 0.00 0.00 0.00 39 1010.2
20260506085617 23 315 9.7 17.7 0.00 0.00 0.00 40 1010.2
20260506084601 22 315 6.4 9.7 0.00 0.00 0.00 40 1010.2
20260506083645 22 315 6.4 11.3 0.00 0.00 0.00 40 1010.2
20260506082649 22 315 3.2 6.4 0.00 0.00 0.00 42 1010.3
20260506081539 22 315 3.2 9.7 0.00 0.00 0.00 43 1010.4
20260506080601 21 315 1.6 8.0 0.00 0.00 0.00 43 1010.4
20260506072601 21 315 11.3 17.7 0.00 0.00 0.00 49 1010.6
20260506071705 21 315 9.7 22.5 0.00 0.00 0.00 49 1010.6
20260506070709 21 315 9.7 17.7 0.00 0.00 0.00 47 1010.5
20260506061537 21 315 11.3 17.7 0.00 0.00 0.00 45 1010.0
20260506060601 21 315 4.8 8.0 0.00 0.00 0.00 46 1009.8
20260506050601 20 315 3.2 12.9 0.00 0.00 0.00 51 1010.0